THOR ABLESTAR DEB, 121

Orbit data source: Space-Track

THOR ABLESTAR DEB, 121 is space debris in LEO originally from a launch on Thu, 29 Jun 1961 UTC launched from the Air Force Eastern Test Range (AFETR). Debris objects in space refer to the collection of defunct objects orbiting the Earth. Examples of debris include non-operational satellites, rocket bodies, and fragments generated from explosions, collisions, or faulty payload assembly.

Loading next visibility...
Identifier
121, 1961-015F
Orbit
LEO
Country
Flag of USUS
Related business
Manufacturer
Unknown
Mission
Spacecraft
Bus & Motor
Unknown
Mass
Unknown
Launch date (UTC)
1961-06-29 (65 years ago)
Launch vehicle
Unknown
Launch site
Air Force Eastern Test Range (AFETR)
Object type
Payload
Rocket body
Debris
Shape & HBR
Unknown shape, 0.4 m
Radar Cross Section
Medium (>0.1 m² and <1 m²)

Expand to show TLE details & history
Last TLE update: 14 hours ago

TLE from 14 hours ago
0 THOR ABLESTAR DEB
1 00121U 61015F   26265.09408911 -.00000032  00000-0  30626-4 0  9997
2 00121  66.7474 160.6126 0099130 295.6210  63.4656 14.00244647339938
Epoch: 2026-09-22T02:15Z
TLE epoch observation values (Epoch: 2026-09-22T02:15:29.299Z)
Latitude
-0.00001°
Longitude
125.77601°
Altitude
863.402 km
Speed
7.437 km/s
True Right ascension
10h 42m 27s
True Declination
0° 00' 00"
Sunlit
Object was in daylight at epoch
Visualization orbit readout
Latitude
Unknown
Longitude
Unknown
Altitude
Unknown
Speed
Unknown
Apparent Right ascension
Unknown
Apparent Declination
Unknown
Sunlit
N/A
Visualization observer readout
Local Sidereal Time
09:02:39
Azimuth
Unknown
Elevation
Unknown
Doppler factor
Unknown
Orbital elements
Apogee altitude
963.402 km
Perigee altitude
819.278 km
Semi-major axis
7,269.477 km
Eccentricity
0.00991
Inclination
66.7474°
RAAN
160.6126°
Arg. of periapsis
295.621°
True anomaly
64.48749°
Mean anomaly
63.4656°
Eccentric anomaly
63.97599°
Mean motion
3.50178 °/min
Orbital period
102.8 mins
BSTAR
0.000030626

Documentation

Showing up to 5 results
|